Regional Weather Roundup
Issued by NWS

Home | Current Version | Previous Version | Text Only | Print | Product List | Glossary Off
Versions: 1 2 3 4 5 6 7 8 9 10 11 12 13 14 15 16 17 18 19 20 21 22 23 24 25 26 27 28 29 30 31 32 33 34 35 36 37 38 39 40 41 42 43 44 45 46 47 48 49 50

000
ASUS43 KOAX 182110
RWRNE

WEATHER ROUNDUP FOR NEBRASKA
NATIONAL WEATHER SERVICE OMAHA NE
400 PM CDT WED OCT 18 2017

NOTES: SATELLITE DATA IS BEING USED TO AUGMENT CLOUD COVER ABOVE
       12000 FEET.
       "FAIR" INDICATES FEW OR NO CLOUDS BELOW 12,000 FEET WITH NO
       SIGNIFICANT WEATHER AND/OR OBSTRUCTIONS TO VISIBILITY.


NEZ001>004-019>022-054>056-182200-
NEBRASKA PANHANDLE

CITY           SKY/WX    TMP DP  RH WIND       PRES   REMARKS
SCOTTSBLUFF    SUNNY     73  25  16 E10       30.08F
ALLIANCE       SUNNY     70  27  20 SE8       30.09S
CHADRON        SUNNY     69  26  20 N6        30.06F
GORDON         FAIR      65  25  22 E3        30.09S
KIMBALL        SUNNY     71  21  15 NE7       30.13S
SIDNEY         SUNNY     73  21  14 VRB5      30.11F
$$

NEZ057>060-069>072-079>082-182200-
SOUTHWEST NEBRASKA

CITY           SKY/WX    TMP DP  RH WIND       PRES   REMARKS
NORTH PLATTE   SUNNY     75  33  21 NE16      30.04S
IMPERIAL       SUNNY     78  22  12 NE13      30.05S
LEXINGTON      SUNNY     74  35  24 NE20      30.02R
MCCOOK         SUNNY     78  32  18 NE16      30.01R
OGALLALA       SUNNY     75  27  16 NE9       30.06S
$$

NEZ005>010-023>029-035>040-094-182200-
NORTH CENTRAL NEBRASKA

CITY           SKY/WX    TMP DP  RH WIND       PRES   REMARKS
VALENTINE      SUNNY     69  30  23 N9        30.06F
AINSWORTH      SUNNY     67  36  32 NE9       30.07S
BROKEN BOW     SUNNY     72  37  28 N15       30.03R
O`NEILL        SUNNY     70  37  30 N8G16     30.04R
ORD            SUNNY     72  31  22 N13G24    30.01R
THEDFORD       SUNNY     71  33  24 NE12G18   30.07S
$$

NEZ041-046>049-061>064-073>077-083>087-182200-
SOUTH CENTRAL NEBRASKA

CITY           SKY/WX    TMP DP  RH WIND       PRES   REMARKS
GRAND ISLAND   SUNNY     77  35  21 N16       29.97R
AURORA         SUNNY     76  38  24 N7        29.95S
HASTINGS       SUNNY     76  38  25 N13G20    29.97R
HEBRON         SUNNY     77  49  36 SW8       29.94S
HOLDREGE       SUNNY     74  38  27 NE14G20   29.99R
KEARNEY        SUNNY     74  37  26 N20       29.99R
YORK           SUNNY     75  41  29 NW7       29.95R
$$

NEZ011>018-030>034-042>045-182200-
NORTHEAST NEBRASKA

CITY           SKY/WX    TMP DP  RH WIND       PRES   REMARKS
NORFOLK        SUNNY     73  37  27 N17G24    29.95R
ALBION         SUNNY     74  38  26 N15G23    29.99R
BLAIR          SUNNY     76  48  36 SW8       29.92S
COLUMBUS       SUNNY     76  40  27 N12       29.95R
FREMONT        SUNNY     75  44  32 NW7       29.93S
TEKAMAH        SUNNY     77  42  28 N5        29.92R
WAYNE          SUNNY     72  35  25 NE12      29.96R
$$

NEZ050>053-065>068-078-088>093-182200-
SOUTHEAST NEBRASKA

CITY           SKY/WX    TMP DP  RH WIND       PRES   REMARKS
LINCOLN        SUNNY     78  50  37 S6        29.93S
OMAHA EPPLEY   MOSUNNY   76  48  37 VRB5      29.92R
BEATRICE       SUNNY     75  51  43 SW8       29.94S
FALLS CITY     SUNNY     73  49  42 S9        29.94F
NEBRASKA CITY  SUNNY     74  50  43 S14       29.94S
PLATTSMOUTH    SUNNY     75  49  38 S9        29.93S
$$

NEZ044-045-051>053-067-182200-
OMAHA AREA

CITY           SKY/WX    TMP DP  RH WIND       PRES   REMARKS
OMAHA EPPLEY   MOSUNNY   76  48  37 VRB5      29.92R
BLAIR          SUNNY     76  48  36 SW8       29.92S
FREMONT        SUNNY     75  44  32 NW7       29.93S
MILLARD        SUNNY     77  51  39 W7        29.92S
OFFUTT AFB     SUNNY     76  49  38 S8        29.91S
PLATTSMOUTH    SUNNY     75  49  38 S9        29.93S
WAHOO          FAIR      79  42  26 NW7       29.92S
$$




USA.gov is the U.S. government's official web portal to all federal, state and local government web resources and services.